| time (UTC) | temp C | wind direction | speed KPH | gust KPH | rain 1hr cm | rain 24hr cm | rain mn cm | humidity % | barometer mb |
| 20260507170055 | 18 | 194 | 6.4 | 22.5 | 0.00 | 0.00 | 0.00 | 50 | 1015.3 |
| 20260507165540 | 18 | 348 | 6.4 | 25.7 | 0.00 | 0.00 | 0.00 | 49 | 1015.4 |
| 20260507165042 | 17 | 243 | 11.3 | 25.7 | 0.00 | 0.00 | 0.00 | 51 | 1015.3 |
| 20260507164600 | 17 | 286 | 8.0 | 25.7 | 0.00 | 0.00 | 0.00 | 51 | 1015.5 |
| 20260507164042 | 17 | 355 | 9.7 | 25.7 | 0.00 | 0.00 | 0.00 | 50 | 1015.6 |
| 20260507163542 | 17 | 174 | 9.7 | 24.1 | 0.00 | 0.00 | 0.00 | 50 | 1015.5 |
| 20260507163054 | 18 | 202 | 6.4 | 22.5 | 0.00 | 0.00 | 0.00 | 49 | 1015.7 |
| 20260507162541 | 17 | 223 | 8.0 | 20.9 | 0.00 | 0.00 | 0.00 | 51 | 1015.7 |
| 20260507162041 | 17 | 241 | 8.0 | 20.9 | 0.00 | 0.00 | 0.00 | 50 | 1015.7 |
| 20260507161608 | 17 | 217 | 4.8 | 25.7 | 0.00 | 0.00 | 0.00 | 53 | 1015.8 |
| 20260507161041 | 17 | 227 | 11.3 | 25.7 | 0.00 | 0.00 | 0.00 | 52 | 1015.9 |
| 20260507160542 | 17 | 271 | 9.7 | 25.7 | 0.00 | 0.00 | 0.00 | 52 | 1015.9 |
| 20260507160116 | 17 | 240 | 6.4 | 25.7 | 0.00 | 0.00 | 0.00 | 53 | 1015.9 |
| 20260507155540 | 16 | 181 | 9.7 | 19.3 | 0.00 | 0.00 | 0.00 | 53 | 1016.0 |
| 20260507155043 | 16 | 196 | 6.4 | 19.3 | 0.00 | 0.00 | 0.00 | 53 | 1016.0 |
| 20260507154600 | 16 | 252 | 4.8 | 17.7 | 0.00 | 0.00 | 0.00 | 54 | 1016.1 |
| 20260507154042 | 16 | 188 | 6.4 | 19.3 | 0.00 | 0.00 | 0.00 | 54 | 1016.0 |
| 20260507153541 | 16 | 321 | 4.8 | 30.6 | 0.00 | 0.00 | 0.00 | 57 | 1016.0 |
| 20260507153101 | 16 | 217 | 11.3 | 30.6 | 0.00 | 0.00 | 0.00 | 53 | 1016.0 |
| 20260507152540 | 16 | 248 | 4.8 | 20.9 | 0.00 | 0.00 | 0.00 | 55 | 1016.1 |
| 20260507152041 | 16 | 166 | 4.8 | 20.9 | 0.00 | 0.00 | 0.00 | 56 | 1016.1 |
| 20260507151556 | 16 | 159 | 4.8 | 19.3 | 0.00 | 0.00 | 0.00 | 56 | 1016.2 |
| 20260507151042 | 15 | 170 | 8.0 | 22.5 | 0.00 | 0.00 | 0.00 | 56 | 1016.3 |
| 20260507150545 | 15 | 296 | 6.4 | 22.5 | 0.00 | 0.00 | 0.00 | 56 | 1016.5 |
| 20260507150054 | 15 | 159 | 8.0 | 20.9 | 0.00 | 0.00 | 0.00 | 56 | 1016.6 |
| 20260507145541 | 15 | 178 | 6.4 | 22.5 | 0.00 | 0.00 | 0.00 | 58 | 1016.6 |
| 20260507145044 | 15 | 296 | 6.4 | 22.5 | 0.00 | 0.00 | 0.00 | 57 | 1016.7 |
| 20260507144606 | 15 | 325 | 6.4 | 22.5 | 0.00 | 0.00 | 0.00 | 58 | 1016.8 |
| 20260507144041 | 15 | 194 | 8.0 | 22.5 | 0.00 | 0.00 | 0.00 | 60 | 1016.8 |
| 20260507143540 | 14 | 192 | 6.4 | 19.3 | 0.00 | 0.00 | 0.00 | 59 | 1016.8 |
| 20260507143106 | 13 | 225 | 4.8 | 19.3 | 0.00 | 0.00 | 0.00 | 60 | 1016.8 |
| 20260507142541 | 13 | 218 | 8.0 | 27.4 | 0.00 | 0.00 | 0.00 | 62 | 1016.8 |
| 20260507142044 | 13 | 248 | 8.0 | 27.4 | 0.00 | 0.00 | 0.00 | 63 | 1016.9 |
| 20260507141610 | 13 | 134 | 6.4 | 22.5 | 0.00 | 0.00 | 0.00 | 64 | 1016.9 |
| 20260507141045 | 13 | 226 | 4.8 | 19.3 | 0.00 | 0.00 | 0.00 | 64 | 1016.8 |
| 20260507140543 | 12 | 228 | 4.8 | 14.5 | 0.00 | 0.00 | 0.00 | 64 | 1016.7 |
| 20260507140101 | 12 | 216 | 3.2 | 16.1 | 0.00 | 0.00 | 0.00 | 66 | 1016.8 |
| 20260507135548 | 12 | 173 | 4.8 | 16.1 | 0.00 | 0.00 | 0.00 | 65 | 1016.9 |
| 20260507135044 | 12 | 324 | 4.8 | 17.7 | 0.00 | 0.00 | 0.00 | 67 | 1016.8 |
| 20260507134607 | 12 | 268 | 3.2 | 17.7 | 0.00 | 0.00 | 0.00 | 67 | 1016.7 |
| 20260507134044 | 12 | 280 | 4.8 | 14.5 | 0.00 | 0.00 | 0.00 | 67 | 1016.7 |
| 20260507133546 | 11 | 257 | 1.6 | 14.5 | 0.00 | 0.00 | 0.00 | 69 | 1016.7 |
| 20260507133108 | 11 | 307 | 3.2 | 11.3 | 0.00 | 0.00 | 0.00 | 71 | 1016.8 |
| 20260507132543 | 11 | 187 | 3.2 | 11.3 | 0.00 | 0.00 | 0.00 | 72 | 1016.9 |
| 20260507132043 | 10 | 227 | 3.2 | 11.3 | 0.00 | 0.00 | 0.00 | 74 | 1016.9 |
| 20260507131600 | 10 | 202 | 1.6 | 12.9 | 0.00 | 0.00 | 0.00 | 75 | 1016.9 |
| 20260507131044 | 10 | 248 | 4.8 | 12.9 | 0.00 | 0.00 | 0.00 | 76 | 1017.0 |
| 20260507130543 | 9 | 0 | 1.6 | 12.9 | 0.00 | 0.00 | 0.00 | 76 | 1016.9 |
| 20260507130107 | 9 | 228 | 3.2 | 14.5 | 0.00 | 0.00 | 0.00 | 77 | 1016.9 |
| 20260507125544 | 9 | 244 | 3.2 | 14.5 | 0.00 | 0.00 | 0.00 | 77 | 1016.9 |
| 20260507125045 | 8 | 199 | 3.2 | 9.7 | 0.00 | 0.00 | 0.00 | 78 | 1016.8 |
| 20260507124554 | 8 | 0 | 1.6 | 8.0 | 0.00 | 0.00 | 0.00 | 78 | 1016.8 |
| 20260507124044 | 8 | 219 | 3.2 | 8.0 | 0.00 | 0.00 | 0.00 | 79 | 1016.8 |
| 20260507123544 | 8 | 183 | 0.0 | 8.0 | 0.00 | 0.00 | 0.00 | 79 | 1016.9 |
| 20260507123057 | 8 | 0 | 1.6 | 8.0 | 0.00 | 0.00 | 0.00 | 80 | 1016.8 |
| 20260507122545 | 7 | 200 | 1.6 | 6.4 | 0.00 | 0.00 | 0.00 | 80 | 1016.9 |
| 20260507122047 | 7 | 236 | 1.6 | 6.4 | 0.00 | 0.00 | 0.00 | 81 | 1016.9 |
| 20260507121601 | 7 | 0 | 0.0 | 6.4 | 0.00 | 0.00 | 0.00 | 81 | 1016.9 |
| 20260507121044 | 7 | 0 | 0.0 | 6.4 | 0.00 | 0.00 | 0.00 | 82 | 1016.9 |
| 20260507120544 | 7 | 163 | 0.0 | 4.8 | 0.00 | 0.00 | 0.00 | 82 | 1017.0 |
| 20260507120053 | 7 | 183 | 0.0 | 4.8 | 0.00 | 0.00 | 0.00 | 82 | 1017.1 |
| 20260507115545 | 7 | 202 | 0.0 | 4.8 | 0.00 | 0.03 | 0.00 | 82 | 1017.0 |
| 20260507115045 | 6 | 192 | 0.0 | 4.8 | 0.00 | 0.03 | 0.00 | 83 | 1017.0 |
| 20260507114605 | 6 | 223 | 0.0 | 4.8 | 0.00 | 0.03 | 0.00 | 83 | 1016.9 |
| 20260507114047 | 6 | 0 | 0.0 | 4.8 | 0.00 | 0.03 | 0.00 | 83 | 1017.0 |
| 20260507113546 | 6 | 198 | 0.0 | 3.2 | 0.00 | 0.03 | 0.00 | 82 | 1017.0 |
| 20260507113055 | 6 | 0 | 0.0 | 6.4 | 0.00 | 0.03 | 0.00 | 82 | 1016.9 |
| 20260507112545 | 6 | 0 | 0.0 | 6.4 | 0.00 | 0.03 | 0.00 | 82 | 1016.9 |
| 20260507112045 | 7 | 0 | 1.6 | 6.4 | 0.00 | 0.03 | 0.00 | 81 | 1017.0 |
| 20260507111601 | 7 | 0 | 0.0 | 3.2 | 0.00 | 0.03 | 0.00 | 81 | 1016.9 |
| 20260507111045 | 7 | 0 | 0.0 | 3.2 | 0.00 | 0.03 | 0.00 | 80 | 1016.9 |
| 20260507110545 | 7 | 229 | 0.0 | 6.4 | 0.00 | 0.03 | 0.00 | 80 | 1017.0 |
| 20260507110052 | 7 | 0 | 0.0 | 6.4 | 0.00 | 0.03 | 0.00 | 80 | 1016.9 |
| 20260507105545 | 7 | 0 | 1.6 | 6.4 | 0.00 | 0.03 | 0.00 | 79 | 1016.8 |
| 20260507105043 | 7 | 0 | 0.0 | 3.2 | 0.00 | 0.03 | 0.00 | 79 | 1016.9 |
| 20260507104551 | 7 | 0 | 0.0 | 6.4 | 0.00 | 0.03 | 0.00 | 79 | 1016.9 |
| 20260507104044 | 7 | 0 | 0.0 | 6.4 | 0.00 | 0.03 | 0.00 | 78 | 1016.9 |
| 20260507103544 | 7 | 0 | 0.0 | 6.4 | 0.00 | 0.03 | 0.00 | 78 | 1016.8 |
| 20260507103049 | 7 | 178 | 0.0 | 6.4 | 0.00 | 0.03 | 0.00 | 78 | 1017.0 |
| 20260507102544 | 7 | 190 | 0.0 | 6.4 | 0.00 | 0.03 | 0.00 | 78 | 1016.9 |
| 20260507102044 | 7 | 206 | 0.0 | 6.4 | 0.00 | 0.03 | 0.00 | 78 | 1016.9 |
| 20260507101611 | 7 | 223 | 1.6 | 6.4 | 0.00 | 0.03 | 0.00 | 78 | 1017.0 |
| 20260507101045 | 7 | 0 | 1.6 | 6.4 | 0.00 | 0.03 | 0.00 | 77 | 1017.0 |
| 20260507100545 | 7 | 198 | 0.0 | 6.4 | 0.00 | 0.03 | 0.00 | 77 | 1017.1 |
| 20260507100051 | 7 | 223 | 0.0 | 4.8 | 0.00 | 0.03 | 0.00 | 77 | 1017.0 |
| 20260507095544 | 7 | 0 | 0.0 | 4.8 | 0.00 | 0.03 | 0.00 | 77 | 1017.1 |
| 20260507095044 | 7 | 217 | 0.0 | 3.2 | 0.00 | 0.03 | 0.00 | 77 | 1017.0 |
| 20260507094553 | 7 | 0 | 0.0 | 4.8 | 0.00 | 0.03 | 0.00 | 76 | 1017.1 |
| 20260507094043 | 8 | 0 | 0.0 | 4.8 | 0.00 | 0.03 | 0.00 | 76 | 1017.0 |
| 20260507093543 | 8 | 227 | 0.0 | 3.2 | 0.00 | 0.03 | 0.00 | 76 | 1017.2 |
| 20260507093057 | 8 | 0 | 0.0 | 3.2 | 0.00 | 0.03 | 0.00 | 75 | 1017.1 |
| 20260507092545 | 8 | 0 | 0.0 | 4.8 | 0.00 | 0.03 | 0.00 | 75 | 1017.1 |
| 20260507092044 | 8 | 0 | 0.0 | 4.8 | 0.00 | 0.03 | 0.00 | 74 | 1017.2 |
| 20260507091551 | 8 | 195 | 0.0 | 3.2 | 0.00 | 0.03 | 0.00 | 73 | 1017.1 |
| 20260507091044 | 8 | 215 | 0.0 | 3.2 | 0.00 | 0.03 | 0.00 | 73 | 1017.3 |
| 20260507090544 | 8 | 0 | 0.0 | 3.2 | 0.00 | 0.03 | 0.00 | 73 | 1017.3 |
| 20260507090110 | 8 | 0 | 0.0 | 3.2 | 0.00 | 0.03 | 0.00 | 72 | 1017.4 |
| 20260507085545 | 8 | 0 | 0.0 | 3.2 | 0.00 | 0.03 | 0.00 | 72 | 1017.4 |
| 20260507085044 | 8 | 0 | 0.0 | 4.8 | 0.00 | 0.03 | 0.00 | 71 | 1017.4 |
| 20260507084552 | 9 | 0 | 0.0 | 4.8 | 0.00 | 0.03 | 0.00 | 71 | 1017.3 |
| 20260507084045 | 9 | 228 | 0.0 | 6.4 | 0.00 | 0.03 | 0.00 | 70 | 1017.4 |
| 20260507083545 | 9 | 234 | 0.0 | 6.4 | 0.00 | 0.03 | 0.00 | 70 | 1017.4 |
| 20260507083052 | 9 | 252 | 0.0 | 6.4 | 0.00 | 0.03 | 0.00 | 70 | 1017.5 |
| 20260507082545 | 9 | 0 | 0.0 | 6.4 | 0.00 | 0.03 | 0.00 | 70 | 1017.5 |
| 20260507082045 | 9 | 0 | 1.6 | 6.4 | 0.00 | 0.03 | 0.00 | 71 | 1017.6 |
| 20260507081553 | 8 | 238 | 0.0 | 4.8 | 0.00 | 0.03 | 0.00 | 71 | 1017.6 |
| 20260507081047 | 9 | 204 | 0.0 | 6.4 | 0.00 | 0.03 | 0.00 | 71 | 1017.6 |
| 20260507080545 | 9 | 0 | 0.0 | 6.4 | 0.00 | 0.03 | 0.00 | 71 | 1017.6 |
| 20260507080055 | 9 | 0 | 0.0 | 9.7 | 0.00 | 0.03 | 0.00 | 70 | 1017.5 |
| 20260507075544 | 9 | 243 | 0.0 | 9.7 | 0.00 | 0.03 | 0.00 | 70 | 1017.5 |
| 20260507075044 | 9 | 226 | 1.6 | 6.4 | 0.00 | 0.03 | 0.00 | 70 | 1017.6 |
| 20260507074557 | 8 | 242 | 0.0 | 6.4 | 0.00 | 0.03 | 0.00 | 70 | 1017.6 |
| 20260507074043 | 8 | 0 | 0.0 | 6.4 | 0.00 | 0.03 | 0.00 | 71 | 1017.6 |
| 20260507073540 | 8 | 0 | 0.0 | 3.2 | 0.00 | 0.03 | 0.00 | 72 | 1017.6 |
| 20260507073049 | 8 | 0 | 0.0 | 1.6 | 0.00 | 0.03 | 0.00 | 72 | 1017.5 |
| 20260507072543 | 8 | 0 | 0.0 | 1.6 | 0.00 | 0.03 | 0.00 | 71 | 1017.6 |
| 20260507072040 | 8 | 0 | 0.0 | 1.6 | 0.00 | 0.03 | 0.00 | 70 | 1017.6 |
| 20260507071553 | 9 | 0 | 0.0 | 1.6 | 0.00 | 0.03 | 0.00 | 69 | 1017.6 |
| 20260507071043 | 9 | 0 | 0.0 | 1.6 | 0.00 | 0.03 | 0.00 | 68 | 1017.8 |
| 20260507070541 | 9 | 0 | 0.0 | 4.8 | 0.00 | 0.03 | 0.00 | 67 | 1017.9 |
| 20260507070056 | 10 | 0 | 0.0 | 4.8 | 0.00 | 0.03 | 0.00 | 67 | 1017.9 |
| 20260507065540 | 10 | 238 | 0.0 | 4.8 | 0.00 | 0.03 | 0.00 | 67 | 1017.9 |
| 20260507065040 | 10 | 0 | 0.0 | 4.8 | 0.00 | 0.03 | 0.00 | 67 | 1017.9 |
| 20260507064606 | 10 | 0 | 0.0 | 4.8 | 0.00 | 0.03 | 0.00 | 67 | 1018.0 |
| 20260507064041 | 10 | 0 | 0.0 | 8.0 | 0.00 | 0.03 | 0.00 | 66 | 1018.1 |
| 20260507063540 | 10 | 0 | 1.6 | 8.0 | 0.00 | 0.03 | 0.00 | 66 | 1018.1 |
| 20260507063054 | 10 | 231 | 0.0 | 4.8 | 0.00 | 0.03 | 0.00 | 66 | 1018.1 |
| 20260507062541 | 10 | 0 | 0.0 | 4.8 | 0.00 | 0.03 | 0.00 | 66 | 1018.1 |
| 20260507062041 | 10 | 274 | 0.0 | 4.8 | 0.00 | 0.03 | 0.00 | 65 | 1018.2 |
| 20260507061553 | 10 | 324 | 0.0 | 4.8 | 0.00 | 0.03 | 0.00 | 65 | 1018.3 |
| 20260507061041 | 10 | 0 | 0.0 | 4.8 | 0.00 | 0.03 | 0.00 | 64 | 1018.2 |
| 20260507060540 | 10 | 236 | 0.0 | 6.4 | 0.00 | 0.03 | 0.00 | 64 | 1018.3 |
| 20260507060054 | 10 | 0 | 0.0 | 6.4 | 0.00 | 0.03 | 0.00 | 63 | 1018.5 |
| 20260507055541 | 10 | 303 | 0.0 | 3.2 | 0.00 | 0.03 | 0.00 | 63 | 1018.4 |
| 20260507055040 | 10 | 342 | 0.0 | 4.8 | 0.00 | 0.03 | 0.00 | 62 | 1018.3 |
| 20260507054604 | 10 | 0 | 0.0 | 4.8 | 0.00 | 0.03 | 0.00 | 62 | 1018.4 |
| 20260507054042 | 10 | 0 | 0.0 | 4.8 | 0.00 | 0.03 | 0.00 | 62 | 1018.3 |
| 20260507053540 | 10 | 0 | 0.0 | 4.8 | 0.00 | 0.03 | 0.00 | 62 | 1018.3 |
| 20260507053047 | 10 | 0 | 0.0 | 3.2 | 0.00 | 0.03 | 0.00 | 62 | 1018.3 |
| 20260507052543 | 10 | 245 | 0.0 | 3.2 | 0.00 | 0.03 | 0.00 | 63 | 1018.5 |
| 20260507052040 | 10 | 0 | 0.0 | 3.2 | 0.00 | 0.03 | 0.00 | 63 | 1018.4 |
| 20260507051547 | 10 | 0 | 0.0 | 3.2 | 0.00 | 0.03 | 0.00 | 64 | 1018.4 |
| 20260507051041 | 10 | 0 | 0.0 | 3.2 | 0.00 | 0.03 | 0.00 | 63 | 1018.4 |
| 20260507050542 | 10 | 0 | 0.0 | 3.2 | 0.00 | 0.03 | 0.00 | 63 | 1018.4 |
| 20260507050052 | 10 | 0 | 0.0 | 3.2 | 0.00 | 0.03 | 0.00 | 63 | 1018.4 |
| 20260507045545 | 10 | 0 | 0.0 | 3.2 | 0.00 | 0.05 | 0.03 | 63 | 1018.4 |
| 20260507045041 | 10 | 0 | 0.0 | 3.2 | 0.00 | 0.05 | 0.03 | 63 | 1018.5 |
| 20260507044547 | 10 | 0 | 0.0 | 3.2 | 0.00 | 0.05 | 0.03 | 62 | 1018.4 |
| 20260507044043 | 10 | 0 | 0.0 | 3.2 | 0.00 | 0.05 | 0.03 | 63 | 1018.3 |
| 20260507043547 | 10 | 0 | 0.0 | 3.2 | 0.00 | 0.05 | 0.03 | 62 | 1018.5 |
| 20260507043058 | 10 | 0 | 0.0 | 3.2 | 0.00 | 0.05 | 0.03 | 62 | 1018.4 |
| 20260507042545 | 10 | 0 | 0.0 | 3.2 | 0.00 | 0.05 | 0.03 | 62 | 1018.4 |
| 20260507042044 | 10 | 0 | 0.0 | 3.2 | 0.00 | 0.05 | 0.03 | 62 | 1018.5 |
| 20260507041603 | 10 | 0 | 0.0 | 3.2 | 0.00 | 0.05 | 0.03 | 63 | 1018.6 |
| 20260507041045 | 9 | 0 | 0.0 | 0.0 | 0.00 | 0.05 | 0.03 | 63 | 1018.5 |
| 20260507040545 | 10 | 0 | 0.0 | 0.0 | 0.00 | 0.05 | 0.03 | 63 | 1018.6 |
| 20260507040057 | 10 | 0 | 0.0 | 0.0 | 0.00 | 0.05 | 0.03 | 62 | 1018.7 |
| 20260507035545 | 10 | 0 | 0.0 | 0.0 | 0.00 | 0.08 | 0.03 | 62 | 1018.5 |
| 20260507035044 | 10 | 0 | 0.0 | 0.0 | 0.00 | 0.08 | 0.03 | 62 | 1018.4 |
| 20260507034556 | 10 | 0 | 0.0 | 3.2 | 0.00 | 0.08 | 0.03 | 61 | 1018.5 |
| 20260507034044 | 10 | 0 | 0.0 | 3.2 | 0.00 | 0.08 | 0.03 | 60 | 1018.5 |
| 20260507033544 | 10 | 0 | 0.0 | 3.2 | 0.00 | 0.08 | 0.03 | 60 | 1018.4 |
| 20260507033053 | 9 | 0 | 0.0 | 1.6 | 0.00 | 0.08 | 0.03 | 62 | 1018.6 |
| 20260507032544 | 9 | 0 | 0.0 | 0.0 | 0.00 | 0.08 | 0.03 | 64 | 1018.6 |
| 20260507032044 | 9 | 0 | 0.0 | 1.6 | 0.00 | 0.08 | 0.03 | 65 | 1018.6 |
| 20260507031552 | 9 | 0 | 0.0 | 1.6 | 0.00 | 0.08 | 0.03 | 64 | 1018.6 |
| 20260507031045 | 9 | 0 | 0.0 | 1.6 | 0.00 | 0.08 | 0.03 | 63 | 1018.7 |
| 20260507030544 | 8 | 0 | 0.0 | 1.6 | 0.00 | 0.08 | 0.03 | 64 | 1018.6 |
| 20260507025545 | 8 | 0 | 0.0 | 0.0 | 0.00 | 0.08 | 0.03 | 66 | 1018.5 |
| 20260507025044 | 8 | 0 | 0.0 | 0.0 | 0.00 | 0.08 | 0.03 | 65 | 1018.5 |
| 20260507024559 | 8 | 0 | 0.0 | 0.0 | 0.00 | 0.08 | 0.03 | 65 | 1018.3 |
| 20260507024044 | 8 | 0 | 0.0 | 0.0 | 0.00 | 0.08 | 0.03 | 64 | 1018.3 |
| 20260507023544 | 8 | 0 | 0.0 | 0.0 | 0.00 | 0.08 | 0.03 | 63 | 1018.3 |
| 20260507023111 | 8 | 0 | 0.0 | 0.0 | 0.00 | 0.08 | 0.03 | 64 | 1018.2 |
| 20260507022544 | 8 | 0 | 0.0 | 0.0 | 0.00 | 0.08 | 0.03 | 64 | 1018.1 |
| 20260507022044 | 9 | 0 | 0.0 | 0.0 | 0.00 | 0.08 | 0.03 | 63 | 1018.3 |
| 20260507021557 | 9 | 0 | 0.0 | 0.0 | 0.00 | 0.08 | 0.03 | 61 | 1018.1 |
| 20260507021044 | 9 | 0 | 0.0 | 0.0 | 0.00 | 0.08 | 0.03 | 61 | 1018.2 |
| 20260507020544 | 9 | 0 | 0.0 | 0.0 | 0.00 | 0.08 | 0.03 | 60 | 1018.0 |
| 20260507020057 | 10 | 0 | 0.0 | 0.0 | 0.00 | 0.08 | 0.03 | 59 | 1018.0 |
| 20260507015544 | 10 | 0 | 0.0 | 0.0 | 0.00 | 0.08 | 0.03 | 58 | 1017.9 |
| 20260507015044 | 10 | 0 | 0.0 | 0.0 | 0.00 | 0.08 | 0.03 | 58 | 1017.9 |
| 20260507014606 | 10 | 0 | 0.0 | 0.0 | 0.00 | 0.08 | 0.03 | 57 | 1017.8 |
| 20260507014044 | 10 | 0 | 0.0 | 0.0 | 0.00 | 0.08 | 0.03 | 55 | 1017.8 |
| 20260507013544 | 10 | 0 | 0.0 | 0.0 | 0.00 | 0.08 | 0.03 | 54 | 1017.7 |
| 20260507013112 | 11 | 0 | 0.0 | 0.0 | 0.00 | 0.08 | 0.03 | 53 | 1017.6 |
| 20260507012541 | 11 | 0 | 0.0 | 0.0 | 0.00 | 0.08 | 0.03 | 52 | 1017.7 |
| 20260507012040 | 11 | 0 | 0.0 | 0.0 | 0.00 | 0.08 | 0.03 | 51 | 1017.6 |
| 20260507011551 | 12 | 0 | 0.0 | 0.0 | 0.00 | 0.08 | 0.03 | 50 | 1017.7 |
| 20260507011044 | 12 | 0 | 0.0 | 0.0 | 0.00 | 0.08 | 0.03 | 46 | 1017.7 |
| 20260507010544 | 12 | 0 | 0.0 | 0.0 | 0.00 | 0.08 | 0.03 | 44 | 1017.7 |
| 20260507010052 | 13 | 0 | 0.0 | 0.0 | 0.00 | 0.08 | 0.03 | 43 | 1017.7 |
| 20260507005543 | 13 | 0 | 0.0 | 4.8 | 0.00 | 0.08 | 0.03 | 41 | 1017.8 |
| 20260507005044 | 13 | 0 | 0.0 | 4.8 | 0.00 | 0.08 | 0.03 | 40 | 1017.8 |
| 20260507004550 | 13 | 0 | 0.0 | 4.8 | 0.00 | 0.08 | 0.03 | 40 | 1017.8 |
| 20260507004044 | 14 | 0 | 0.0 | 4.8 | 0.00 | 0.08 | 0.03 | 37 | 1017.6 |
| 20260507003544 | 14 | 0 | 0.0 | 4.8 | 0.00 | 0.08 | 0.03 | 35 | 1017.6 |
| 20260507003052 | 14 | 316 | 0.0 | 6.4 | 0.00 | 0.08 | 0.03 | 38 | 1017.5 |
| 20260507002543 | 14 | 285 | 0.0 | 6.4 | 0.00 | 0.08 | 0.03 | 37 | 1017.6 |
| 20260507002043 | 14 | 313 | 0.0 | 3.2 | 0.00 | 0.08 | 0.03 | 37 | 1017.7 |
| 20260507001607 | 14 | 0 | 0.0 | 3.2 | 0.00 | 0.08 | 0.03 | 37 | 1017.6 |
| 20260507001047 | 15 | 286 | 0.0 | 1.6 | 0.00 | 0.08 | 0.03 | 36 | 1017.6 |
| 20260507000545 | 15 | 0 | 0.0 | 6.4 | 0.00 | 0.08 | 0.03 | 35 | 1017.6 |
| 20260507000052 | 15 | 0 | 0.0 | 6.4 | 0.00 | 0.08 | 0.03 | 35 | 1017.5 |
| 20260506235544 | 15 | 0 | 0.0 | 6.4 | 0.00 | 0.08 | 0.03 | 38 | 1017.5 |
| 20260506235044 | 15 | 0 | 0.0 | 6.4 | 0.00 | 0.08 | 0.03 | 36 | 1017.6 |
| 20260506234554 | 15 | 0 | 0.0 | 8.0 | 0.00 | 0.08 | 0.03 | 35 | 1017.7 |
| 20260506234048 | 15 | 0 | 0.0 | 8.0 | 0.00 | 0.08 | 0.03 | 36 | 1017.7 |
| 20260506233544 | 15 | 0 | 1.6 | 8.0 | 0.00 | 0.08 | 0.03 | 36 | 1017.8 |
| 20260506233102 | 15 | 321 | 0.0 | 8.0 | 0.00 | 0.08 | 0.03 | 38 | 1017.7 |
| 20260506232544 | 15 | 0 | 0.0 | 6.4 | 0.00 | 0.08 | 0.03 | 34 | 1017.7 |
| 20260506232044 | 15 | 343 | 0.0 | 8.0 | 0.00 | 0.08 | 0.03 | 35 | 1017.9 |
| 20260506231552 | 15 | 0 | 0.0 | 8.0 | 0.00 | 0.08 | 0.03 | 38 | 1017.8 |
| 20260506231044 | 15 | 157 | 0.0 | 4.8 | 0.00 | 0.08 | 0.03 | 35 | 1017.7 |
| 20260506230544 | 15 | 0 | 0.0 | 4.8 | 0.00 | 0.08 | 0.03 | 34 | 1017.8 |
| 20260506230056 | 15 | 0 | 0.0 | 6.4 | 0.00 | 0.08 | 0.03 | 35 | 1017.9 |
| 20260506225544 | 15 | 0 | 0.0 | 6.4 | 0.00 | 0.08 | 0.03 | 35 | 1017.9 |
| 20260506225041 | 15 | 0 | 0.0 | 4.8 | 0.00 | 0.08 | 0.03 | 35 | 1017.9 |
| 20260506224554 | 15 | 0 | 0.0 | 8.0 | 0.00 | 0.08 | 0.03 | 35 | 1017.9 |
| 20260506224043 | 15 | 40 | 1.6 | 8.0 | 0.00 | 0.08 | 0.03 | 32 | 1017.9 |
| 20260506223547 | 16 | 317 | 1.6 | 9.7 | 0.00 | 0.08 | 0.03 | 34 | 1017.8 |
| 20260506223113 | 16 | 355 | 0.0 | 9.7 | 0.00 | 0.08 | 0.03 | 34 | 1017.9 |
| 20260506222544 | 16 | 304 | 1.6 | 6.4 | 0.00 | 0.08 | 0.03 | 34 | 1017.8 |
| 20260506222044 | 16 | 319 | 1.6 | 6.4 | 0.00 | 0.08 | 0.03 | 34 | 1017.8 |
| 20260506221602 | 16 | 0 | 0.0 | 6.4 | 0.00 | 0.08 | 0.03 | 34 | 1017.9 |
| 20260506221044 | 16 | 0 | 0.0 | 9.7 | 0.00 | 0.08 | 0.03 | 34 | 1017.9 |
| 20260506220544 | 16 | 19 | 1.6 | 9.7 | 0.00 | 0.08 | 0.03 | 35 | 1017.9 |
| 20260506220056 | 16 | 350 | 0.0 | 4.8 | 0.00 | 0.08 | 0.03 | 34 | 1018.0 |
| 20260506215544 | 16 | 0 | 0.0 | 4.8 | 0.00 | 0.08 | 0.03 | 33 | 1018.0 |
| 20260506215043 | 16 | 355 | 0.0 | 4.8 | 0.00 | 0.08 | 0.03 | 35 | 1018.1 |
| 20260506214604 | 16 | 0 | 0.0 | 3.2 | 0.00 | 0.08 | 0.03 | 34 | 1018.0 |
| 20260506214045 | 16 | 0 | 0.0 | 4.8 | 0.00 | 0.08 | 0.03 | 33 | 1018.1 |
| 20260506213545 | 16 | 0 | 0.0 | 8.0 | 0.00 | 0.08 | 0.03 | 34 | 1018.2 |
| 20260506213054 | 16 | 36 | 0.0 | 8.0 | 0.00 | 0.08 | 0.03 | 35 | 1018.2 |
| 20260506212541 | 16 | 11 | 0.0 | 9.7 | 0.00 | 0.08 | 0.03 | 36 | 1018.2 |
| 20260506212044 | 16 | 0 | 0.0 | 9.7 | 0.00 | 0.08 | 0.03 | 32 | 1018.4 |
| 20260506211556 | 16 | 349 | 1.6 | 9.7 | 0.00 | 0.08 | 0.03 | 35 | 1018.4 |
| 20260506211041 | 16 | 24 | 0.0 | 6.4 | 0.00 | 0.08 | 0.03 | 34 | 1018.5 |
| 20260506210544 | 17 | 314 | 0.0 | 6.4 | 0.00 | 0.08 | 0.03 | 34 | 1018.6 |
| 20260506210052 | 16 | 313 | 0.0 | 12.9 | 0.00 | 0.08 | 0.03 | 33 | 1018.7 |
| 20260506205544 | 17 | 0 | 3.2 | 12.9 | 0.00 | 0.08 | 0.03 | 34 | 1018.8 |
| 20260506205044 | 16 | 38 | 1.6 | 8.0 | 0.00 | 0.08 | 0.03 | 34 | 1018.8 |
| 20260506204555 | 16 | 137 | 0.0 | 9.7 | 0.00 | 0.08 | 0.03 | 35 | 1018.9 |
| 20260506204043 | 16 | 0 | 0.0 | 9.7 | 0.00 | 0.08 | 0.03 | 36 | 1019.0 |
| 20260506203543 | 16 | 48 | 1.6 | 9.7 | 0.00 | 0.08 | 0.03 | 31 | 1019.1 |
| 20260506203100 | 16 | 0 | 3.2 | 11.3 | 0.00 | 0.08 | 0.03 | 36 | 1019.2 |
| 20260506202546 | 16 | 0 | 1.6 | 11.3 | 0.00 | 0.08 | 0.03 | 31 | 1019.1 |
| 20260506202044 | 16 | 0 | 0.0 | 4.8 | 0.00 | 0.08 | 0.03 | 39 | 1019.4 |
| 20260506201552 | 16 | 350 | 1.6 | 9.7 | 0.00 | 0.08 | 0.03 | 37 | 1019.3 |
| 20260506201047 | 16 | 0 | 0.0 | 14.5 | 0.00 | 0.08 | 0.03 | 32 | 1019.4 |
| 20260506200543 | 17 | 288 | 3.2 | 14.5 | 0.00 | 0.08 | 0.03 | 33 | 1019.6 |
| 20260506200135 | 16 | 275 | 1.6 | 17.7 | 0.00 | 0.08 | 0.03 | 34 | 1019.7 |
| 20260506195543 | 16 | 340 | 1.6 | 17.7 | 0.00 | 0.08 | 0.03 | 35 | 1019.8 |
| 20260506195046 | 16 | 0 | 3.2 | 17.7 | 0.00 | 0.08 | 0.03 | 34 | 1019.6 |
| 20260506194550 | 16 | 347 | 0.0 | 12.9 | 0.00 | 0.08 | 0.03 | 36 | 1019.7 |
| 20260506194043 | 16 | 325 | 3.2 | 12.9 | 0.00 | 0.08 | 0.03 | 36 | 1019.5 |
| 20260506193546 | 16 | 24 | 0.0 | 6.4 | 0.00 | 0.08 | 0.03 | 36 | 1019.6 |
| 20260506193051 | 15 | 0 | 1.6 | 9.7 | 0.00 | 0.08 | 0.03 | 34 | 1019.6 |
| 20260506192543 | 15 | 58 | 1.6 | 11.3 | 0.00 | 0.08 | 0.03 | 34 | 1019.7 |
| 20260506192043 | 16 | 0 | 1.6 | 11.3 | 0.00 | 0.08 | 0.03 | 35 | 1019.5 |
| 20260506191552 | 15 | 20 | 1.6 | 6.4 | 0.00 | 0.08 | 0.03 | 39 | 1019.5 |
| 20260506191044 | 16 | 0 | 1.6 | 9.7 | 0.00 | 0.08 | 0.03 | 35 | 1019.4 |
| 20260506190546 | 16 | 27 | 1.6 | 9.7 | 0.00 | 0.08 | 0.03 | 37 | 1019.6 |
| 20260506190055 | 14 | 0 | 3.2 | 8.0 | 0.00 | 0.08 | 0.03 | 35 | 1019.6 |
| 20260506185548 | 15 | 39 | 0.0 | 6.4 | 0.00 | 0.08 | 0.03 | 39 | 1019.7 |
| 20260506185044 | 15 | 0 | 0.0 | 8.0 | 0.00 | 0.08 | 0.03 | 39 | 1019.7 |
| 20260506184553 | 15 | 13 | 1.6 | 9.7 | 0.00 | 0.08 | 0.03 | 34 | 1019.8 |
| 20260506184044 | 15 | 19 | 1.6 | 9.7 | 0.00 | 0.08 | 0.03 | 35 | 1019.8 |
| 20260506183544 | 15 | 42 | 0.0 | 9.7 | 0.00 | 0.08 | 0.03 | 34 | 1019.8 |
| 20260506183055 | 15 | 0 | 1.6 | 12.9 | 0.00 | 0.08 | 0.03 | 33 | 1019.8 |
| 20260506182544 | 15 | 72 | 1.6 | 12.9 | 0.00 | 0.08 | 0.03 | 34 | 1019.9 |
| 20260506182044 | 15 | 338 | 0.0 | 12.9 | 0.00 | 0.08 | 0.03 | 35 | 1019.8 |
| 20260506181554 | 15 | 244 | 1.6 | 12.9 | 0.00 | 0.08 | 0.03 | 33 | 1019.9 |
| 20260506181044 | 15 | 331 | 3.2 | 12.9 | 0.00 | 0.08 | 0.03 | 37 | 1019.8 |
| 20260506180545 | 15 | 35 | 0.0 | 11.3 | 0.00 | 0.08 | 0.03 | 39 | 1020.0 |
| 20260506175546 | 15 | 173 | 0.0 | 6.4 | 0.00 | 0.08 | 0.03 | 39 | 1020.0 |
| 20260506175044 | 14 | 71 | 0.0 | 14.5 | 0.00 | 0.08 | 0.03 | 38 | 1020.0 |
| 20260506174549 | 13 | 0 | 0.0 | 14.5 | 0.00 | 0.08 | 0.03 | 36 | 1020.1 |
| 20260506174047 | 15 | 352 | 3.2 | 12.9 | 0.00 | 0.08 | 0.03 | 36 | 1020.1 |
| 20260506173544 | 14 | 0 | 0.0 | 8.0 | 0.00 | 0.08 | 0.03 | 36 | 1020.2 |
| 20260506173106 | 14 | 40 | 1.6 | 8.0 | 0.00 | 0.08 | 0.03 | 36 | 1020.1 |
| 20260506172546 | 14 | 338 | 0.0 | 8.0 | 0.00 | 0.08 | 0.03 | 39 | 1020.1 |
| 20260506172044 | 13 | 0 | 1.6 | 6.4 | 0.00 | 0.08 | 0.03 | 38 | 1020.2 |
| 20260506171558 | 13 | 51 | 1.6 | 6.4 | 0.00 | 0.08 | 0.03 | 39 | 1020.3 |
| 20260506171044 | 13 | 29 | 0.0 | 6.4 | 0.00 | 0.08 | 0.03 | 40 | 1020.4 |
| 20260506170543 | 13 | 5 | 1.6 | 6.4 | 0.00 | 0.08 | 0.03 | 41 | 1020.3 |